Location: Climax
(33.2048°N, 96.4497°W)
Time: 07:06:49
(UTC+00:00)

SL-4 R/B - Pass Details

Date: 10 July 2022
Orbit: 425 x 653 km, 51.6° (Epoch: 14 August)

Event Time Altitude Azimuth Distance (km) Brightness Sun altitude
Rises 10:40:21 0° 317° (NW) 2,594 5.4 -8.8°
Reaches altitude 10° 10:42:29 10° 321° (NW) 1,746 4.5 -8.4°
Maximum altitude 10:46:26 62° 42° (NE) 617 2.6 -7.8°
Drops below altitude 10° 10:50:40 10° 124° (ESE) 1,881 5.1 -7.0°
Sets 10:53:03 0° 127° (SE) 2,817 5.9 -6.6°
